DH0GMA Weather Reports


Display with metric or nautical units.
time (UTC)temp
F
wind
direction
speed
MPH
gust
MPH
rain 1hr
in
rain 24hr
in
rain mn
in
humidity
%
barometer
mb
20260510002627 52 34 1.0 4.0 0.00 0.00 0.00 79 1012.0
20260510001627 53 50 0.0 3.0 0.00 0.00 0.00 78 1012.1
20260510000627 53 44 1.0 2.0 0.00 0.00 0.00 77 1012.1
20260509235627 53 44 1.0 3.0 0.00 0.00 0.00 76 1012.3
20260509234627 54 42 2.0 2.0 0.00 0.00 0.00 76 1012.4
20260509233628 54 42 1.0 2.0 0.00 0.00 0.00 76 1012.5
20260509232628 54 41 0.0 2.0 0.00 0.00 0.00 76 1012.5
20260509231628 54 41 0.0 0.0 0.00 0.00 0.00 75 1012.6
20260509230628 55 41 0.0 0.0 0.00 0.00 0.00 73 1012.7
20260509225628 56 41 0.0 0.0 0.00 0.00 0.00 72 1012.6
20260509224628 57 41 0.0 1.0 0.00 0.00 0.00 70 1012.7
20260509223628 57 41 0.0 1.0 0.00 0.00 0.00 69 1012.7
20260509222628 58 41 0.0 1.0 0.00 0.00 0.00 68 1012.7
20260509221627 58 41 1.0 2.0 0.00 0.00 0.00 68 1012.7
20260509220627 59 52 1.0 3.0 0.00 0.00 0.00 67 1012.6
20260509215627 59 17 1.0 4.0 0.00 0.00 0.00 66 1012.6
20260509214627 59 54 2.0 4.0 0.00 0.00 0.00 66 1012.6
20260509213627 59 50 2.0 4.0 0.00 0.00 0.00 65 1012.6
20260509212627 60 46 2.0 4.0 0.00 0.00 0.00 64 1012.6
20260509211627 60 45 1.0 4.0 0.00 0.00 0.00 64 1012.7
20260509210626 60 47 2.0 5.0 0.00 0.00 0.00 63 1012.7
20260509205626 60 59 2.0 4.0 0.00 0.00 0.00 63 1012.9
20260509204628 61 59 1.0 5.0 0.00 0.00 0.00 63 1012.8
20260509203628 61 50 2.0 4.0 0.00 0.00 0.00 62 1012.9
20260509202628 61 54 0.0 4.0 0.00 0.00 0.00 62 1012.9
20260509201628 62 55 1.0 4.0 0.00 0.00 0.00 62 1012.9
20260509200628 62 53 1.0 3.0 0.00 0.00 0.00 61 1012.9
20260509195627 62 58 1.0 3.0 0.00 0.00 0.00 61 1013.0
20260509194627 62 58 0.0 3.0 0.00 0.00 0.00 61 1012.9
20260509193627 63 57 1.0 2.0 0.00 0.00 0.00 60 1013.0
20260509192627 64 57 1.0 3.0 0.00 0.00 0.00 58 1012.9
20260509191627 64 57 1.0 5.0 0.00 0.00 0.00 58 1012.9
20260509190627 65 52 1.0 3.0 0.00 0.00 0.00 57 1012.8
20260509185627 65 52 1.0 4.0 0.00 0.00 0.00 56 1012.8
20260509184627 66 60 1.0 4.0 0.00 0.00 0.00 55 1012.7
20260509183627 67 56 2.0 5.0 0.00 0.00 0.00 54 1012.8
20260509182627 67 40 2.0 5.0 0.00 0.00 0.00 54 1012.8
20260509181627 68 39 2.0 4.0 0.00 0.00 0.00 53 1012.7
20260509180627 68 33 1.0 5.0 0.00 0.00 0.00 53 1012.7
20260509175627 69 34 1.0 4.0 0.00 0.00 0.00 52 1012.8
20260509174627 69 27 2.0 5.0 0.00 0.00 0.00 50 1012.9
20260509173627 70 66 1.0 4.0 0.00 0.00 0.00 49 1012.9
20260509172628 70 49 0.0 4.0 0.00 0.00 0.00 48 1012.8
20260509171627 71 52 1.0 5.0 0.00 0.00 0.00 47 1012.8
20260509170627 71 55 1.0 5.0 0.00 0.00 0.00 47 1012.7
20260509165627 72 53 2.0 7.0 0.00 0.00 0.00 45 1012.7
20260509164627 72 61 2.0 5.0 0.00 0.00 0.00 43 1012.6
20260509163627 73 49 0.0 4.0 0.00 0.00 0.00 43 1012.7
20260509162627 73 16 0.0 5.0 0.00 0.00 0.00 44 1012.7
20260509161627 72 66 3.0 8.0 0.00 0.00 0.00 43 1012.9
20260509160627 73 60 2.0 6.0 0.00 0.00 0.00 41 1012.9
20260509155627 74 354 1.0 4.0 0.00 0.00 0.00 42 1013.1
20260509154627 74 33 1.0 4.0 0.00 0.00 0.00 41 1013.1
20260509153626 74 51 0.0 4.0 0.00 0.00 0.00 43 1013.2
20260509152626 74 68 1.0 5.0 0.00 0.00 0.00 41 1013.3
20260509151626 75 1 1.0 2.0 0.00 0.00 0.00 40 1013.3
20260509150626 74 23 1.0 3.0 0.00 0.00 0.00 43 1013.5
20260509145626 73 43 1.0 6.0 0.00 0.00 0.00 39 1013.3
20260509144626 74 36 2.0 4.0 0.00 0.00 0.00 41 1013.4
20260509143628 75 323 2.0 3.0 0.00 0.00 0.00 41 1013.5
20260509142628 75 18 1.0 5.0 0.00 0.00 0.00 40 1013.6
20260509141628 75 268 1.0 5.0 0.00 0.00 0.00 42 1013.7
20260509140627 75 14 2.0 4.0 0.00 0.00 0.00 40 1013.9
20260509135627 75 15 0.0 3.0 0.00 0.00 0.00 43 1013.9
20260509134627 75 293 1.0 5.0 0.00 0.00 0.00 41 1014.2
20260509133627 75 247 2.0 4.0 0.00 0.00 0.00 43 1014.3
20260509132627 74 213 3.0 5.0 0.00 0.00 0.00 44 1014.4
20260509131627 73 251 1.0 3.0 0.00 0.00 0.00 44 1014.6
20260509130627 72 29 2.0 3.0 0.00 0.00 0.00 44 1014.7
20260509125627 74 58 1.0 3.0 0.00 0.00 0.00 45 1014.8
20260509124627 73 104 1.0 5.0 0.00 0.00 0.00 44 1014.9
20260509123627 72 202 1.0 4.0 0.00 0.00 0.00 47 1015.0
20260509122627 72 181 0.0 3.0 0.00 0.00 0.00 50 1015.1
20260509121627 71 272 0.0 4.0 0.00 0.00 0.00 55 1015.1
20260509120627 71 241 0.0 5.0 0.00 0.00 0.00 52 1015.4
20260509115627 71 227 0.0 4.0 0.00 0.00 0.00 53 1015.6
20260509114627 70 182 2.0 4.0 0.00 0.00 0.00 55 1015.5
20260509113627 70 270 1.0 5.0 0.00 0.00 0.00 58 1015.7
20260509112627 70 213 2.0 4.0 0.00 0.00 0.00 56 1015.8
20260509111627 69 358 1.0 5.0 0.00 0.00 0.00 56 1015.8
20260509110626 69 273 2.0 4.0 0.00 0.00 0.00 63 1016.1
20260509105626 68 279 1.0 3.0 0.00 0.00 0.00 60 1016.1
20260509104626 68 274 1.0 4.0 0.00 0.00 0.00 61 1016.2
20260509103626 67 58 1.0 2.0 0.00 0.00 0.00 63 1016.5
20260509102626 66 195 3.0 5.0 0.00 0.00 0.00 64 1016.5
20260509101628 66 176 2.0 3.0 0.00 0.00 0.00 66 1016.6
20260509100628 66 321 1.0 3.0 0.00 0.00 0.00 67 1016.7
20260509095628 65 274 2.0 3.0 0.00 0.00 0.00 66 1016.8
20260509094628 64 274 2.0 4.0 0.00 0.00 0.00 69 1016.9
20260509093627 64 273 2.0 4.0 0.00 0.00 0.00 65 1016.9
20260509092627 65 159 0.0 4.0 0.00 0.00 0.00 67 1017.0
20260509091626 64 119 1.0 3.0 0.00 0.00 0.00 68 1016.9
20260509090626 62 37 2.0 4.0 0.00 0.00 0.00 69 1017.0
20260509085628 61 41 0.0 2.0 0.00 0.00 0.00 73 1017.1
20260509084628 60 39 0.0 4.0 0.00 0.00 0.00 72 1017.2
20260509083628 60 79 1.0 5.0 0.00 0.00 0.00 72 1017.2
20260509082627 60 158 0.0 2.0 0.00 0.00 0.00 73 1017.3
20260509081627 60 153 1.0 3.0 0.00 0.00 0.00 71 1017.2
20260509080627 60 161 0.0 4.0 0.00 0.00 0.00 73 1017.3
20260509075627 58 33 0.0 2.0 0.00 0.00 0.00 77 1017.2
20260509074627 56 33 0.0 2.0 0.00 0.00 0.00 77 1017.2
20260509073627 56 33 1.0 4.0 0.00 0.00 0.00 78 1017.4
20260509072627 55 33 1.0 2.0 0.00 0.00 0.00 77 1017.3
20260509071628 56 32 1.0 2.0 0.00 0.00 0.00 77 1017.3
20260509070627 55 35 1.0 2.0 0.00 0.00 0.00 80 1017.3
20260509065627 54 44 0.0 2.0 0.00 0.00 0.00 80 1017.3
20260509064627 53 45 0.0 2.0 0.00 0.00 0.00 80 1017.2
20260509063627 53 45 0.0 3.0 0.00 0.00 0.00 81 1017.2
20260509062626 52 45 0.0 2.0 0.00 0.00 0.00 82 1017.2
20260509061626 51 47 2.0 3.0 0.00 0.00 0.00 84 1017.2
20260509060626 51 46 0.0 1.0 0.00 0.00 0.00 85 1017.2
20260509055626 50 45 0.0 1.0 0.00 0.00 0.00 86 1017.1
20260509054626 50 46 0.0 1.0 0.00 0.00 0.00 86 1017.0
20260509053627 49 46 1.0 3.0 0.00 0.00 0.00 86 1017.1
20260509052627 49 46 0.0 1.0 0.00 0.00 0.00 86 1017.0
20260509051627 49 46 0.0 5.0 0.00 0.00 0.00 86 1017.1
20260509050628 49 43 1.0 3.0 0.00 0.00 0.00 86 1016.9
20260509045627 49 66 0.0 4.0 0.00 0.00 0.00 86 1016.8
20260509044627 49 71 0.0 2.0 0.00 0.00 0.00 86 1016.8
20260509043627 48 70 1.0 5.0 0.00 0.00 0.00 86 1016.8
20260509042627 48 52 0.0 1.0 0.00 0.00 0.00 86 1016.8
20260509041627 48 52 0.0 0.0 0.00 0.00 0.00 86 1016.7
20260509040627 49 52 0.0 0.0 0.00 0.00 0.00 86 1016.8
20260509035626 49 52 0.0 0.0 0.00 0.00 0.00 86 1016.7
20260509034626 49 52 0.0 0.0 0.00 0.00 0.00 86 1016.8
20260509033626 49 52 0.0 2.0 0.00 0.00 0.00 86 1016.7
20260509032626 49 52 1.0 3.0 0.00 0.00 0.00 86 1016.5
20260509031626 48 31 3.0 6.0 0.00 0.00 0.00 86 1016.4
20260509030626 48 67 0.0 3.0 0.00 0.00 0.00 86 1016.7
20260509025626 49 48 1.0 4.0 0.00 0.00 0.00 85 1016.5
20260509024626 49 62 2.0 6.0 0.00 0.00 0.00 85 1016.5
20260509023628 49 50 2.0 4.0 0.00 0.00 0.00 85 1016.6
20260509022627 49 50 1.0 3.0 0.00 0.00 0.00 85 1016.6
20260509021627 49 40 1.0 5.0 0.00 0.00 0.00 85 1016.7
20260509020627 49 40 1.0 4.0 0.00 0.00 0.00 85 1016.5
20260509015627 49 38 1.0 3.0 0.00 0.00 0.00 84 1016.5
20260509014627 49 38 1.0 1.0 0.00 0.00 0.00 84 1016.5
20260509013627 49 35 2.0 4.0 0.00 0.00 0.00 84 1016.5
20260509012627 49 45 0.0 2.0 0.00 0.00 0.00 84 1016.7
20260509011627 49 45 0.0 1.0 0.00 0.00 0.00 84 1016.6
20260509010626 49 45 0.0 0.0 0.00 0.00 0.00 84 1016.7
20260509005626 50 45 0.0 0.0 0.00 0.00 0.00 83 1016.8
20260509004626 50 45 0.0 1.0 0.00 0.00 0.00 83 1016.7
20260509003626 50 45 0.0 1.0 0.00 0.00 0.00 83 1016.6